Total_Precipitation_Accumulation
1.15 1.41 1.90 2.59 3.07 3.21 3.20 3.26 3.24 3.29 3.34 3.27 3.30 3.50 3.67 3.71 3.65 3.74 3.79 3.64 3.54 3.58 3.72 3.72 3.66 3.41 3.21 3.05 2.98 2.90 2.69 2.43 2.23 2.21 2.13 1.92 1.72 1.70 1.63 1.57 1.57 1.46 1.42
1.04 1.42 1.81 2.24 2.66 2.98 3.10 3.21 3.16 3.35 3.59 3.92 4.33 4.63 4.81 4.74 4.59 4.53 4.43 4.25 4.12 4.05 4.00 3.99 3.79 3.51 3.34 3.11 2.92 2.83 2.69 2.48 2.34 2.29 2.35 2.10 1.92 1.67 1.51 1.54 1.50 1.42 1.37
1.05 1.36 1.60 1.94 2.29 2.61 2.84 3.00 3.24 3.68 4.12 4.64 5.36 5.76 5.61 5.26 5.08 4.81 4.70 4.49 4.22 4.12 4.07 3.83 3.63 3.40 3.19 3.04 2.85 2.76 2.68 2.47 2.36 2.32 2.44 2.27 2.06 1.83 1.68 1.52 1.41 1.40 1.41
1.10 1.21 1.41 1.71 1.96 2.33 2.71 3.03 3.43 4.00 4.59 5.06 5.56 5.84 5.80 5.56 5.31 4.88 4.51 4.15 3.80 3.57 3.43 3.32 3.10 2.98 2.84 2.71 2.54 2.51 2.46 2.35 2.18 2.13 2.02 1.93 1.84 1.80 1.68 1.54 1.40 1.37 1.40
0.99 1.08 1.18 1.39 1.74 2.17 2.58 2.97 3.36 3.97 4.52 5.03 5.41 5.65 5.70 5.55 5.21 4.57 3.97 3.59 3.26 2.99 2.73 2.52 2.41 2.39 2.31 2.13 1.97 1.93 1.91 1.87 1.82 1.81 1.73 1.67 1.62 1.61 1.55 1.52 1.45 1.39 1.30
0.93 0.94 1.04 1.20 1.56 1.94 2.42 2.77 3.07 3.73 4.40 4.96 5.34 5.59 5.61 5.31 4.72 4.09 3.55 3.20 2.94 2.67 2.41 2.24 2.06 1.97 1.85 1.70 1.54 1.45 1.44 1.50 1.53 1.54 1.52 1.43 1.40 1.40 1.44 1.40 1.34 1.30 1.24
0.85 0.88 1.04 1.11 1.38 1.73 2.10 2.45 2.79 3.26 3.74 4.17 4.44 4.64 4.70 4.48 4.12 3.74 3.27 2.90 2.66 2.42 2.16 1.85 1.66 1.55 1.46 1.37 1.30 1.19 1.17 1.23 1.28 1.27 1.27 1.27 1.23 1.22 1.29 1.34 1.32 1.26 1.19
0.92 0.93 1.06 1.13 1.22 1.45 1.74 2.12 2.45 2.74 2.98 3.17 3.38 3.38 3.35 3.31 3.17 2.84 2.46 2.18 1.92 1.76 1.61 1.41 1.26 1.17 1.14 1.11 1.09 1.02 0.97 1.01 1.11 1.16 1.21 1.23 1.23 1.27 1.32 1.36 1.41 1.45 1.33
0.94 0.97 1.08 1.13 1.19 1.31 1.51 1.74 1.89 2.08 2.13 2.09 2.12 2.19 2.22 2.22 2.14 2.00 1.75 1.47 1.25 1.11 1.01 0.96 0.92 0.80 0.82 0.86 0.89 0.90 0.91 0.95 0.96 1.00 1.05 1.10 1.17 1.22 1.22 1.26 1.36 1.51 1.52
0.97 1.03 1.09 1.17 1.22 1.24 1.42 1.53 1.51 1.50 1.53 1.54 1.53 1.50 1.55 1.60 1.60 1.54 1.41 1.24 1.07 0.94 0.84 0.79 0.73 0.64 0.60 0.64 0.69 0.75 0.80 0.89 0.89 0.86 0.87 0.90 0.97 1.14 1.25 1.32 1.39 1.49 1.57
1.01 1.10 1.10 1.06 1.05 1.04 1.08 1.12 1.15 1.20 1.20 1.17 1.19 1.21 1.18 1.14 1.12 1.16 1.16 1.06 0.94 0.82 0.74 0.67 0.65 0.63 0.57 0.55 0.59 0.60 0.64 0.73 0.77 0.73 0.75 0.81 0.88 0.96 1.04 1.17 1.30 1.47 1.61
1.07 1.05 1.00 0.90 0.86 0.89 0.92 0.91 0.94 0.97 1.01 1.02 1.00 1.00 0.93 0.87 0.87 0.86 0.86 0.82 0.82 0.79 0.73 0.69 0.67 0.61 0.54 0.52 0.53 0.52 0.51 0.56 0.61 0.64 0.68 0.67 0.70 0.81 0.89 0.99 1.11 1.23 1.34
1.25 1.16 1.05 0.92 0.83 0.82 0.84 0.78 0.77 0.77 0.74 0.76 0.78 0.81 0.77 0.73 0.75 0.71 0.70 0.73 0.74 0.73 0.69 0.67 0.62 0.57 0.55 0.55 0.54 0.50 0.49 0.47 0.49 0.54 0.60 0.64 0.70 0.79 0.87 0.96 1.00 1.07 1.11
1.23 1.13 1.05 0.95 0.88 0.82 0.77 0.73 0.69 0.65 0.62 0.60 0.59 0.64 0.65 0.64 0.65 0.66 0.64 0.61 0.60 0.61 0.56 0.51 0.52 0.53 0.50 0.45 0.42 0.41 0.43 0.44 0.43 0.44 0.48 0.53 0.61 0.71 0.82 0.88 0.95 1.04 1.13
1.29 1.23 1.13 1.01 0.90 0.84 0.74 0.69 0.66 0.58 0.54 0.55 0.58 0.60 0.62 0.61 0.62 0.65 0.62 0.55 0.49 0.46 0.45 0.43 0.43 0.44 0.39 0.35 0.33 0.34 0.34 0.38 0.41 0.43 0.43 0.42 0.47 0.57 0.64 0.70 0.85 1.05 1.22
1.29 1.23 1.11 1.01 0.92 0.87 0.83 0.77 0.71 0.63 0.60 0.64 0.66 0.65 0.64 0.66 0.65 0.62 0.58 0.53 0.49 0.45 0.42 0.45 0.41 0.34 0.26 0.27 0.29 0.29 0.33 0.39 0.44 0.51 0.49 0.40 0.37 0.41 0.47 0.54 0.65 0.84 1.09
1.42 1.36 1.24 1.13 1.04 0.96 0.87 0.83 0.78 0.71 0.68 0.68 0.66 0.63 0.61 0.62 0.56 0.51 0.54 0.52 0.50 0.46 0.42 0.43 0.40 0.35 0.25 0.20 0.21 0.24 0.30 0.41 0.49 0.55 0.54 0.43 0.36 0.43 0.50 0.52 0.55 0.65 0.82
1.57 1.46 1.34 1.25 1.18 1.07 0.98 0.89 0.79 0.72 0.67 0.64 0.58 0.52 0.53 0.59 0.53 0.51 0.53 0.50 0.50 0.50 0.45 0.41 0.40 0.39 0.24 0.20 0.22 0.25 0.35 0.45 0.46 0.45 0.47 0.52 0.55 0.47 0.47 0.53 0.68 0.83 0.91
1.51 1.42 1.31 1.27 1.19 1.07 0.98 0.87 0.76 0.65 0.58 0.56 0.51 0.45 0.45 0.47 0.47 0.47 0.50 0.52 0.53 0.56 0.48 0.41 0.43 0.43 0.32 0.24 0.26 0.30 0.40 0.46 0.44 0.39 0.38 0.41 0.50 0.48 0.53 0.68 0.91 1.11 1.25
1.29 1.26 1.23 1.17 1.12 0.99 0.86 0.79 0.76 0.67 0.55 0.48 0.43 0.41 0.42 0.42 0.46 0.49 0.51 0.48 0.52 0.58 0.48 0.40 0.41 0.38 0.32 0.24 0.26 0.32 0.38 0.46 0.44 0.45 0.44 0.49 0.51 0.52 0.65 0.80 1.08 1.29 1.39
1.20 1.13 1.07 1.03 0.97 0.88 0.77 0.73 0.69 0.60 0.44 0.34 0.34 0.36 0.38 0.38 0.39 0.48 0.51 0.51 0.50 0.53 0.51 0.46 0.41 0.34 0.24 0.21 0.24 0.28 0.32 0.39 0.46 0.49 0.54 0.58 0.59 0.58 0.69 0.86 1.04 1.25 1.32
1.14 1.04 0.96 0.85 0.77 0.69 0.66 0.65 0.53 0.40 0.30 0.30 0.32 0.34 0.33 0.28 0.30 0.44 0.48 0.48 0.52 0.49 0.49 0.52 0.50 0.38 0.28 0.19 0.16 0.18 0.23 0.31 0.49 0.59 0.61 0.61 0.60 0.62 0.77 0.90 1.11 1.31 1.44
0.95 0.84 0.74 0.65 0.59 0.58 0.59 0.55 0.42 0.30 0.26 0.32 0.37 0.34 0.30 0.29 0.29 0.35 0.39 0.40 0.46 0.45 0.42 0.44 0.42 0.35 0.30 0.21 0.12 0.12 0.16 0.23 0.36 0.51 0.66 0.65 0.60 0.76 1.04 1.22 1.34 1.49 1.56
0.78 0.66 0.60 0.58 0.55 0.51 0.47 0.41 0.31 0.29 0.32 0.38 0.38 0.35 0.36 0.34 0.28 0.27 0.26 0.28 0.31 0.33 0.38 0.38 0.36 0.34 0.31 0.21 0.15 0.17 0.19 0.23 0.28 0.42 0.61 0.74 0.77 0.93 1.22 1.45 1.55 1.60 1.51
0.62 0.54 0.53 0.53 0.49 0.43 0.37 0.31 0.28 0.28 0.36 0.37 0.32 0.30 0.30 0.29 0.28 0.22 0.17 0.16 0.16 0.17 0.24 0.28 0.30 0.31 0.26 0.18 0.18 0.20 0.21 0.24 0.29 0.37 0.55 0.74 0.84 1.05 1.28 1.42 1.42 1.37 1.27
0.45 0.43 0.42 0.39 0.36 0.32 0.29 0.26 0.23 0.22 0.29 0.33 0.31 0.26 0.24 0.22 0.18 0.18 0.17 0.12 0.11 0.11 0.13 0.17 0.18 0.19 0.19 0.16 0.15 0.16 0.21 0.26 0.33 0.40 0.63 0.82 0.92 1.07 1.20 1.27 1.24 1.15 1.06